KLM1009 EHAM-EGLL

Flight info

Callsign KLM1009
Flight time 0h 33m
Altitude 24000
Route EHAM/36C IDRID L980 LOGAN LOGAN2H
Aircraft B739/M-SDE2E3FGHIRWXY/LB1

Departure

Time 2026-05-07 11:17
Airport Amsterdam Airport Schiphol (EHAM)

Arrival

Time 2026-05-07 11:50
Airport London Heathrow Airport (EGLL)
Time Latitude Longitude Altitude Speed Heading
2026-05-07 11:02 52.30340 4.76217 -3 ft 0 kts 58°
2026-05-07 11:03 52.30339 4.76213 -3 ft 2 kts 57°
2026-05-07 11:04 52.30330 4.76191 -3 ft 2 kts 57°
2026-05-07 11:04 52.30322 4.76169 -3 ft 2 kts 58°
2026-05-07 11:04 52.30321 4.76146 -3 ft 2 kts 135°
2026-05-07 11:04 52.30327 4.76139 -3 ft 0 kts 148°
2026-05-07 11:09 52.30326 4.76140 -3 ft 1 kts 148°
2026-05-07 11:09 52.30302 4.76164 -3 ft 7 kts 148°
2026-05-07 11:09 52.30286 4.76180 -3 ft 9 kts 148°
2026-05-07 11:10 52.30033 4.75839 -4 ft 20 kts 238°
2026-05-07 11:11 52.29960 4.75642 -3 ft 20 kts 238°
2026-05-07 11:11 52.29890 4.75461 -2 ft 14 kts 236°
2026-05-07 11:11 52.29849 4.75359 0 ft 7 kts 237°
2026-05-07 11:11 52.29830 4.75286 1 ft 7 kts 260°
2026-05-07 11:12 52.29839 4.75208 2 ft 8 kts 294°
2026-05-07 11:12 52.29885 4.75114 -4 ft 13 kts 311°
2026-05-07 11:12 52.29907 4.75073 -4 ft 15 kts 311°
2026-05-07 11:13 52.30103 4.74708 6 ft 8 kts 310°
2026-05-07 11:13 52.30160 4.74606 2 ft 15 kts 313°
2026-05-07 11:14 52.30234 4.74468 6 ft 18 kts 310°
2026-05-07 11:14 52.30313 4.74318 3 ft 8 kts 312°
2026-05-07 11:14 52.30338 4.74273 3 ft 0 kts 313°
2026-05-07 11:14 52.30346 4.74259 2 ft 4 kts 313°
2026-05-07 11:15 52.30381 4.74197 1 ft 10 kts 313°
2026-05-07 11:15 52.30417 4.74119 0 ft 9 kts 296°
2026-05-07 11:15 52.30423 4.74009 -4 ft 11 kts 260°
2026-05-07 11:15 52.30413 4.73880 -5 ft 11 kts 268°
2026-05-07 11:16 52.30430 4.73764 -5 ft 10 kts 316°
2026-05-07 11:16 52.30504 4.73766 -5 ft 14 kts
2026-05-07 11:16 52.30808 4.73789 -2 ft 79 kts
2026-05-07 11:16 52.31575 4.73862 -4 ft 138 kts
2026-05-07 11:17 52.32611 4.73995 316 ft 154 kts
2026-05-07 11:17 52.33680 4.74092 1233 ft 149 kts
2026-05-07 11:17 52.34698 4.74106 1909 ft 157 kts 346°
2026-05-07 11:17 52.35545 4.72788 2200 ft 189 kts 293°
2026-05-07 11:18 52.35501 4.70531 2595 ft 214 kts 247°
2026-05-07 11:18 52.34604 4.68597 3242 ft 213 kts 227°
2026-05-07 11:18 52.33567 4.66759 3878 ft 227 kts 230°
2026-05-07 11:18 52.32550 4.64731 4568 ft 233 kts 234°
2026-05-07 11:19 52.31603 4.62589 5447 ft 230 kts 237°
2026-05-07 11:19 52.30707 4.60327 5981 ft 248 kts 240°
2026-05-07 11:19 52.29791 4.57794 6313 ft 273 kts 242°
2026-05-07 11:19 52.28870 4.55040 7041 ft 278 kts 244°
2026-05-07 11:20 52.27981 4.52210 7880 ft 281 kts 245°
2026-05-07 11:20 52.27120 4.49333 8756 ft 283 kts 245°
2026-05-07 11:20 52.26274 4.46415 9607 ft 286 kts 246°
2026-05-07 11:20 52.25434 4.43451 10395 ft 290 kts 246°
2026-05-07 11:21 52.24568 4.40343 10648 ft 313 kts 246°
2026-05-07 11:21 52.23644 4.36988 10851 ft 336 kts 246°
2026-05-07 11:21 52.22657 4.33380 11073 ft 359 kts 246°
2026-05-07 11:21 52.21641 4.29650 11663 ft 368 kts 246°
2026-05-07 11:22 52.20600 4.25827 12544 ft 369 kts 246°
2026-05-07 11:22 52.19557 4.21992 13358 ft 372 kts 246°
2026-05-07 11:22 52.18500 4.18106 14088 ft 377 kts 246°
2026-05-07 11:22 52.17433 4.14189 14830 ft 379 kts 246°
2026-05-07 11:23 52.16356 4.10238 15465 ft 384 kts 246°
2026-05-07 11:23 52.15263 4.06237 16150 ft 388 kts 246°
2026-05-07 11:23 52.14161 4.02205 16847 ft 391 kts 246°
2026-05-07 11:23 52.13047 3.98138 17466 ft 396 kts 246°
2026-05-07 11:24 52.11930 3.94070 18126 ft 399 kts 246°
2026-05-07 11:24 52.10793 3.89932 18753 ft 402 kts 246°
2026-05-07 11:24 52.09645 3.85768 19346 ft 405 kts 246°
2026-05-07 11:24 52.08490 3.81580 19939 ft 407 kts 246°
2026-05-07 11:25 52.07325 3.77365 20559 ft 409 kts 246°
2026-05-07 11:25 52.06148 3.73115 21057 ft 414 kts 246°
2026-05-07 11:25 52.04962 3.68839 21689 ft 416 kts 246°
2026-05-07 11:25 52.03767 3.64539 22217 ft 420 kts 245°
2026-05-07 11:26 52.02561 3.60202 22775 ft 422 kts 245°
2026-05-07 11:26 52.01347 3.55850 23379 ft 424 kts 245°
2026-05-07 11:26 52.00117 3.51471 23853 ft 428 kts 244°
2026-05-07 11:26 51.98681 3.47306 24080 ft 430 kts 236°
2026-05-07 11:27 51.96923 3.43386 24086 ft 429 kts 233°
2026-05-07 11:27 51.95113 3.39514 24098 ft 432 kts 233°
2026-05-07 11:27 51.93296 3.35615 24102 ft 433 kts 233°
2026-05-07 11:27 51.91511 3.31732 24088 ft 428 kts 233°
2026-05-07 11:28 51.89737 3.27833 24103 ft 433 kts 234°
2026-05-07 11:28 51.87952 3.23906 24096 ft 430 kts 234°
2026-05-07 11:28 51.86338 3.19823 24090 ft 431 kts 243°
2026-05-07 11:28 51.85175 3.15365 24097 ft 431 kts 251°
2026-05-07 11:29 51.84409 3.10646 24089 ft 433 kts 260°
2026-05-07 11:29 51.84065 3.05874 24101 ft 433 kts 264°
2026-05-07 11:29 51.83785 3.01010 24088 ft 434 kts 264°
2026-05-07 11:29 51.83508 2.96158 24087 ft 434 kts 264°
2026-05-07 11:30 51.81820 2.69212 23948 ft 418 kts 263°
2026-05-07 11:30 51.77575 2.09038 24250 ft 430 kts 263°
2026-05-07 11:30 51.74892 1.65669 24235 ft 436 kts 265°
2026-05-07 11:30 51.74691 1.60816 24179 ft 432 kts 265°
2026-05-07 11:31 51.74453 1.55980 24121 ft 431 kts 264°
2026-05-07 11:31 51.74170 1.51195 24093 ft 426 kts 263°
2026-05-07 11:31 51.73864 1.46421 23778 ft 430 kts 263°
2026-05-07 11:31 51.73547 1.41632 23110 ft 427 kts 263°
2026-05-07 11:32 51.72918 1.32250 21714 ft 414 kts 263°
2026-05-07 11:32 51.72613 1.27708 21029 ft 409 kts 263°
2026-05-07 11:32 51.72308 1.23168 20345 ft 405 kts 263°
2026-05-07 11:33 51.71751 1.14917 19109 ft 397 kts 263°
2026-05-07 11:33 51.69538 0.82916 14476 ft 364 kts 264°
2026-05-07 11:33 51.67563 0.55081 11445 ft 326 kts 264°
2026-05-07 11:33 51.67304 0.51534 11140 ft 313 kts 264°
2026-05-07 11:34 51.67055 0.48109 10757 ft 302 kts 264°
2026-05-07 11:34 51.66811 0.44798 10387 ft 293 kts 264°
2026-05-07 11:34 51.66574 0.41581 10023 ft 286 kts 264°
2026-05-07 11:34 51.66343 0.38441 9649 ft 280 kts 264°
2026-05-07 11:35 51.66111 0.35308 9310 ft 283 kts 264°
2026-05-07 11:35 51.65877 0.32151 8941 ft 286 kts 264°
2026-05-07 11:35 51.65639 0.28960 8585 ft 287 kts 264°
2026-05-07 11:35 51.65402 0.25780 8227 ft 286 kts 264°
2026-05-07 11:36 51.65164 0.22604 7868 ft 283 kts 264°
2026-05-07 11:36 51.64812 0.19539 7582 ft 274 kts 256°
2026-05-07 11:36 51.64301 0.16609 7327 ft 269 kts 254°
2026-05-07 11:36 51.63761 0.13725 7083 ft 270 kts 254°
2026-05-07 11:37 51.63213 0.10792 6850 ft 276 kts 254°
2026-05-07 11:37 51.62663 0.07818 6607 ft 278 kts 254°
2026-05-07 11:37 51.62120 0.04846 6347 ft 276 kts 254°
2026-05-07 11:37 51.61593 0.01936 6088 ft 272 kts 255°
2026-05-07 11:38 51.61130 -0.00964 6037 ft 263 kts 262°
2026-05-07 11:38 51.61018 -0.03879 6127 ft 263 kts 266°
2026-05-07 11:38 51.60932 -0.06862 6113 ft 269 kts 266°
2026-05-07 11:38 51.60845 -0.09881 6028 ft 270 kts 266°
2026-05-07 11:39 51.60756 -0.12882 5999 ft 266 kts 266°
2026-05-07 11:39 51.60668 -0.15853 6014 ft 267 kts 266°
2026-05-07 11:39 51.60579 -0.18841 5998 ft 268 kts 266°
2026-05-07 11:39 51.60485 -0.21832 6014 ft 266 kts 266°
2026-05-07 11:40 51.60390 -0.24809 6001 ft 266 kts 266°
2026-05-07 11:40 51.60292 -0.27779 6038 ft 266 kts 266°
2026-05-07 11:40 51.60189 -0.30781 5996 ft 271 kts 266°
2026-05-07 11:40 51.60082 -0.33801 5978 ft 268 kts 266°
2026-05-07 11:41 51.59976 -0.36769 5984 ft 263 kts 266°
2026-05-07 11:41 51.59869 -0.39658 5986 ft 260 kts 266°
2026-05-07 11:41 51.59759 -0.42558 6002 ft 260 kts 266°
2026-05-07 11:41 51.59645 -0.45464 6000 ft 260 kts 266°
2026-05-07 11:42 51.59525 -0.48366 5990 ft 259 kts 266°
2026-05-07 11:42 51.59405 -0.51255 5777 ft 257 kts 266°
2026-05-07 11:42 51.59285 -0.54134 5387 ft 259 kts 265°
2026-05-07 11:42 51.59166 -0.57029 5009 ft 261 kts 266°
2026-05-07 11:43 51.59048 -0.59942 4711 ft 260 kts 265°
2026-05-07 11:43 51.58639 -0.62743 4367 ft 258 kts 245°
2026-05-07 11:43 51.57824 -0.65309 4078 ft 258 kts 241°
2026-05-07 11:43 51.56973 -0.67809 3999 ft 249 kts 241°
2026-05-07 11:44 51.56164 -0.70147 3980 ft 236 kts 241°
2026-05-07 11:44 51.55385 -0.72387 3968 ft 223 kts 240°
2026-05-07 11:44 51.54646 -0.74500 3999 ft 214 kts 240°
2026-05-07 11:44 51.53862 -0.76505 3970 ft 211 kts 226°
2026-05-07 11:45 51.52616 -0.77686 3797 ft 211 kts 192°
2026-05-07 11:45 51.51145 -0.77846 3476 ft 213 kts 181°
2026-05-07 11:45 51.49660 -0.77866 3227 ft 212 kts 181°
2026-05-07 11:45 51.48188 -0.77828 3036 ft 213 kts 169°
2026-05-07 11:46 51.46939 -0.76656 2947 ft 215 kts 126°
2026-05-07 11:46 51.46515 -0.74396 2788 ft 217 kts 83°
2026-05-07 11:46 51.46895 -0.72065 2675 ft 215 kts 75°
2026-05-07 11:46 51.47190 -0.69774 2568 ft 204 kts 82°
2026-05-07 11:47 51.47322 -0.67583 2529 ft 193 kts 87°
2026-05-07 11:47 51.47416 -0.65410 2285 ft 198 kts 85°
2026-05-07 11:47 51.47526 -0.63218 1995 ft 195 kts 86°
2026-05-07 11:47 51.47606 -0.61066 1719 ft 189 kts 88°
2026-05-07 11:48 51.47655 -0.59027 1468 ft 178 kts 89°
2026-05-07 11:48 51.47686 -0.57095 1226 ft 169 kts 89°
2026-05-07 11:48 51.47706 -0.55292 1031 ft 156 kts 89°
2026-05-07 11:48 51.47719 -0.53560 781 ft 153 kts 89°
2026-05-07 11:49 51.47730 -0.51836 505 ft 154 kts 89°
2026-05-07 11:49 51.47738 -0.50154 326 ft 152 kts 89°
2026-05-07 11:49 51.47747 -0.48467 136 ft 151 kts 89°
2026-05-07 11:49 51.47754 -0.46896 90 ft 119 kts 89°
2026-05-07 11:50 51.47758 -0.45910 85 ft 58 kts 89°
2026-05-07 11:50 51.47763 -0.45324 85 ft 46 kts 89°
2026-05-07 11:50 51.47761 -0.44993 91 ft 17 kts 94°
2026-05-07 11:50 51.47736 -0.44894 93 ft 9 kts 131°
2026-05-07 11:51 51.47686 -0.44831 92 ft 9 kts 150°
2026-05-07 11:51 51.47636 -0.44787 93 ft 2 kts 154°
2026-05-07 11:51 51.47633 -0.44785 93 ft 0 kts 155°
2026-05-07 11:52 51.47621 -0.44776 92 ft 4 kts 155°
2026-05-07 11:52 51.47594 -0.44735 92 ft 7 kts 117°
2026-05-07 11:52 51.47565 -0.44665 92 ft 8 kts 150°
2026-05-07 11:52 51.47511 -0.44625 88 ft 9 kts 141°
2026-05-07 11:53 51.47458 -0.44565 88 ft 10 kts 159°
2026-05-07 11:53 51.47378 -0.44556 84 ft 13 kts 179°
2026-05-07 11:53 51.47289 -0.44555 84 ft 13 kts 179°
2026-05-07 11:53 51.47201 -0.44554 86 ft 13 kts 179°
2026-05-07 11:54 51.47113 -0.44565 86 ft 13 kts 193°
2026-05-07 11:54 51.47034 -0.44583 84 ft 8 kts 184°
2026-05-07 11:54 51.47003 -0.44586 85 ft 0 kts 186°
2026-05-07 11:54 51.47001 -0.44590 89 ft 1 kts 214°
2026-05-07 11:55 51.46999 -0.44608 89 ft 4 kts 259°
2026-05-07 11:55 51.46998 -0.44662 83 ft 3 kts 271°
2026-05-07 11:55 51.46998 -0.44677 83 ft 0 kts 271°
2026-05-07 11:55 51.46998 -0.44680 83 ft 0 kts 271°